owner,sensor,date,latitude,longitude,vertical_datum,wind_speed,wind_to_direction,wind_speed_of_gust,qcFlag 
NOS,ioos:station:wmo:fpst2:1,2019-01-01T00:00:00Z,28.9360,-95.2940,15.0,1.2,153.0,1.5,'11111222,11111222,11111222' 
NOS,ioos:station:wmo:fpst2:1,2019-01-01T00:06:00Z,28.9360,-95.2940,15.0,1.4,168.0,1.5,'11111222,11111222,11111222' 
NOS,ioos:station:wmo:fpst2:1,2019-01-01T00:12:00Z,28.9360,-95.2940,15.0,2.0,142.0,2.4,'11111222,11111222,11111222' 
NOS,ioos:station:wmo:fpst2:1,2019-01-01T00:18:00Z,28.9360,-95.2940,15.0,2.0,142.0,2.4,'11111222,11111222,11111222' 
NOS,ioos:station:wmo:fpst2:1,2019-01-01T00:24:00Z,28.9360,-95.2940,15.0,2.4,139.0,2.6,'11111222,11111222,11111222' 
NOS,ioos:station:wmo:fpst2:1,2019-01-01T00:30:00Z,28.9360,-95.2940,15.0,2.1,143.0,2.4,'11111222,11111222,11111222' 
NOS,ioos:station:wmo:fpst2:1,2019-01-01T00:36:00Z,28.9360,-95.2940,15.0,1.4,152.0,2.5,'11111222,11111222,11111222' 
NOS,ioos:station:wmo:fpst2:1,2019-01-01T00:42:00Z,28.9360,-95.2940,15.0,1.2,156.0,1.5,'11111222,11111222,11111222' 
NOS,ioos:station:wmo:fpst2:1,2019-01-01T00:48:00Z,28.9360,-95.2940,15.0,1.5,161.0,1.7,'11111222,11111222,11111222' 
NOS,ioos:station:wmo:fpst2:1,2019-01-01T00:54:00Z,28.9360,-95.2940,15.0,2.0,153.0,2.2,'11111222,11111222,11111222' 
NOS,ioos:station:wmo:fpst2:1,2019-01-01T01:00:00Z,28.9360,-95.2940,15.0,1.4,160.0,2.2,'11111222,11111222,11111222' 
NOS,ioos:station:wmo:fpst2:1,2019-01-01T01:06:00Z,28.9360,-95.2940,15.0,1.4,180.0,1.7,'11111222,11111222,11111222' 
NOS,ioos:station:wmo:fpst2:1,2019-01-01T01:12:00Z,28.9360,-95.2940,15.0,1.0,175.0,1.7,'11111222,11111222,11111222' 
NOS,ioos:station:wmo:fpst2:1,2019-01-01T01:18:00Z,28.9360,-95.2940,15.0,0.7,193.0,1.0,'11111222,11111222,11111222' 
NOS,ioos:station:wmo:fpst2:1,2019-01-01T01:24:00Z,28.9360,-95.2940,15.0,0.9,178.0,1.0,'11111222,11111222,11111222' 
NOS,ioos:station:wmo:fpst2:1,2019-01-01T01:30:00Z,28.9360,-95.2940,15.0,1.0,187.0,1.3,'11111222,11111222,11111222' 
NOS,ioos:station:wmo:fpst2:1,2019-01-01T01:36:00Z,28.9360,-95.2940,15.0,1.0,199.0,1.2,'11111222,11111222,11111222' 
NOS,ioos:station:wmo:fpst2:1,2019-01-01T01:42:00Z,28.9360,-95.2940,15.0,1.3,200.0,1.4,'11111222,11111222,11111222' 
NOS,ioos:station:wmo:fpst2:1,2019-01-01T01:48:00Z,28.9360,-95.2940,15.0,1.5,194.0,1.7,'11111222,11111222,11111222' 
NOS,ioos:station:wmo:fpst2:1,2019-01-01T01:54:00Z,28.9360,-95.2940,15.0,1.5,205.0,1.6,'11111222,11111222,11111222' 
NOS,ioos:station:wmo:fpst2:1,2019-01-01T02:00:00Z,28.9360,-95.2940,15.0,1.0,175.0,1.5,'11111222,11111222,11111222' 
NOS,ioos:station:wmo:fpst2:1,2019-01-01T02:06:00Z,28.9360,-95.2940,15.0,1.4,205.0,1.5,'11111222,11111222,11111222' 
NOS,ioos:station:wmo:fpst2:1,2019-01-01T02:12:00Z,28.9360,-95.2940,15.0,1.3,218.0,1.7,'11111222,11111222,11111222' 
NOS,ioos:station:wmo:fpst2:1,2019-01-01T02:18:00Z,28.9360,-95.2940,15.0,1.9,207.0,2.1,'11111222,11111222,11111222' 
NOS,ioos:station:wmo:fpst2:1,2019-01-01T02:24:00Z,28.9360,-95.2940,15.0,1.9,207.0,2.1,'11111222,11111222,11111222' 
NOS,ioos:station:wmo:fpst2:1,2019-01-01T02:30:00Z,28.9360,-95.2940,15.0,2.3,201.0,2.5,'11111222,11111222,11111222' 
NOS,ioos:station:wmo:fpst2:1,2019-01-01T02:36:00Z,28.9360,-95.2940,15.0,2.5,225.0,2.6,'11111222,11111222,11111222' 
NOS,ioos:station:wmo:fpst2:1,2019-01-01T02:42:00Z,28.9360,-95.2940,15.0,1.8,217.0,2.6,'11111222,11111222,11111222' 
NOS,ioos:station:wmo:fpst2:1,2019-01-01T02:48:00Z,28.9360,-95.2940,15.0,1.9,217.0,2.2,'11111222,11111222,11111222' 
NOS,ioos:station:wmo:fpst2:1,2019-01-01T02:54:00Z,28.9360,-95.2940,15.0,1.9,203.0,2.3,'11111222,11111222,11111222' 
NOS,ioos:station:wmo:fpst2:1,2019-01-01T03:00:00Z,28.9360,-95.2940,15.0,1.5,191.0,2.0,'11111222,11111222,11111222' 
NOS,ioos:station:wmo:fpst2:1,2019-01-01T03:06:00Z,28.9360,-95.2940,15.0,1.3,195.0,1.6,'11111222,11111222,11111222' 
NOS,ioos:station:wmo:fpst2:1,2019-01-01T03:12:00Z,28.9360,-95.2940,15.0,1.6,210.0,1.8,'11111222,11111222,11111222' 
NOS,ioos:station:wmo:fpst2:1,2019-01-01T03:18:00Z,28.9360,-95.2940,15.0,1.7,214.0,1.8,'11111222,11111222,11111222' 
NOS,ioos:station:wmo:fpst2:1,2019-01-01T03:24:00Z,28.9360,-95.2940,15.0,2.0,198.0,2.2,'11111222,11111222,11111222' 
NOS,ioos:station:wmo:fpst2:1,2019-01-01T03:30:00Z,28.9360,-95.2940,15.0,1.8,194.0,2.4,'11111222,11111222,11111222' 
NOS,ioos:station:wmo:fpst2:1,2019-01-01T03:36:00Z,28.9360,-95.2940,15.0,1.7,211.0,1.8,'11111222,11111222,11111222' 
NOS,ioos:station:wmo:fpst2:1,2019-01-01T03:42:00Z,28.9360,-95.2940,15.0,1.7,209.0,1.9,'11111222,11111222,11111222' 
NOS,ioos:station:wmo:fpst2:1,2019-01-01T03:48:00Z,28.9360,-95.2940,15.0,1.5,218.0,1.9,'11111222,11111222,11111222' 
NOS,ioos:station:wmo:fpst2:1,2019-01-01T03:54:00Z,28.9360,-95.2940,15.0,1.6,223.0,1.8,'11111222,11111222,11111222' 
NOS,ioos:station:wmo:fpst2:1,2019-01-01T04:00:00Z,28.9360,-95.2940,15.0,1.5,205.0,2.1,'11111222,11111222,11111222' 
NOS,ioos:station:wmo:fpst2:1,2019-01-01T04:06:00Z,28.9360,-95.2940,15.0,1.8,202.0,2.0,'11111222,11111222,11111222' 
NOS,ioos:station:wmo:fpst2:1,2019-01-01T04:12:00Z,28.9360,-95.2940,15.0,1.0,208.0,1.8,'11111222,11111222,11111222' 
NOS,ioos:station:wmo:fpst2:1,2019-01-01T04:18:00Z,28.9360,-95.2940,15.0,1.1,217.0,1.3,'11111222,11111222,11111222' 
NOS,ioos:station:wmo:fpst2:1,2019-01-01T04:24:00Z,28.9360,-95.2940,15.0,1.1,233.0,1.4,'11111222,11111222,11111222' 
NOS,ioos:station:wmo:fpst2:1,2019-01-01T04:30:00Z,28.9360,-95.2940,15.0,0.9,234.0,1.0,'11111222,11111222,11111222' 
NOS,ioos:station:wmo:fpst2:1,2019-01-01T04:36:00Z,28.9360,-95.2940,15.0,1.0,233.0,1.1,'11111222,11111222,11111222' 
NOS,ioos:station:wmo:fpst2:1,2019-01-01T04:42:00Z,28.9360,-95.2940,15.0,1.4,238.0,1.4,'11111222,11111222,11111222' 
NOS,ioos:station:wmo:fpst2:1,2019-01-01T04:48:00Z,28.9360,-95.2940,15.0,1.7,247.0,1.8,'11111222,11111222,11111222' 
NOS,ioos:station:wmo:fpst2:1,2019-01-01T04:54:00Z,28.9360,-95.2940,15.0,1.6,249.0,1.9,'11111222,11111222,11111222' 
NOS,ioos:station:wmo:fpst2:1,2019-01-01T05:00:00Z,28.9360,-95.2940,15.0,1.4,272.0,1.7,'11111222,11111222,11111222' 
NOS,ioos:station:wmo:fpst2:1,2019-01-01T05:06:00Z,28.9360,-95.2940,15.0,1.5,276.0,1.7,'11111222,11111222,11111222' 
NOS,ioos:station:wmo:fpst2:1,2019-01-01T05:12:00Z,28.9360,-95.2940,15.0,1.7,283.0,1.8,'11111222,11111222,11111222' 
NOS,ioos:station:wmo:fpst2:1,2019-01-01T05:18:00Z,28.9360,-95.2940,15.0,1.8,279.0,2.2,'11111222,11111222,11111222' 
NOS,ioos:station:wmo:fpst2:1,2019-01-01T05:24:00Z,28.9360,-95.2940,15.0,1.1,285.0,1.4,'11111222,11111222,11111222' 
NOS,ioos:station:wmo:fpst2:1,2019-01-01T05:30:00Z,28.9360,-95.2940,15.0,1.1,285.0,1.4,'11111222,11111222,11111222' 
NOS,ioos:station:wmo:fpst2:1,2019-01-01T05:36:00Z,28.9360,-95.2940,15.0,1.2,282.0,1.5,'11111222,11111222,11111222' 
NOS,ioos:station:wmo:fpst2:1,2019-01-01T05:42:00Z,28.9360,-95.2940,15.0,1.5,273.0,1.6,'11111222,11111222,11111222' 
NOS,ioos:station:wmo:fpst2:1,2019-01-01T05:48:00Z,28.9360,-95.2940,15.0,1.4,270.0,1.6,'11111222,11111222,11111222' 
NOS,ioos:station:wmo:fpst2:1,2019-01-01T05:54:00Z,28.9360,-95.2940,15.0,1.5,283.0,1.7,'11111222,11111222,11111222' 
NOS,ioos:station:wmo:fpst2:1,2019-01-01T06:00:00Z,28.9360,-95.2940,15.0,0.6,295.0,1.4,'11111222,11111222,11111222' 
NOS,ioos:station:wmo:fpst2:1,2019-01-01T06:06:00Z,28.9360,-95.2940,15.0,0.0,294.0,0.7,'11111222,11111222,11111222' 
NOS,ioos:station:wmo:fpst2:1,2019-01-01T06:12:00Z,28.9360,-95.2940,15.0,0.4,294.0,0.6,'11111222,11111222,11111222' 
NOS,ioos:station:wmo:fpst2:1,2019-01-01T06:18:00Z,28.9360,-95.2940,15.0,1.1,317.0,1.5,'11111222,11111222,11111222' 
NOS,ioos:station:wmo:fpst2:1,2019-01-01T06:24:00Z,28.9360,-95.2940,15.0,0.9,301.0,1.2,'11111222,11111222,11111222' 
NOS,ioos:station:wmo:fpst2:1,2019-01-01T06:30:00Z,28.9360,-95.2940,15.0,1.2,303.0,1.5,'11111222,11111222,11111222' 
NOS,ioos:station:wmo:fpst2:1,2019-01-01T06:36:00Z,28.9360,-95.2940,15.0,1.1,290.0,1.7,'11111222,11111222,11111222' 
NOS,ioos:station:wmo:fpst2:1,2019-01-01T06:42:00Z,28.9360,-95.2940,15.0,1.3,304.0,1.5,'11111222,11111222,11111222' 
NOS,ioos:station:wmo:fpst2:1,2019-01-01T06:48:00Z,28.9360,-95.2940,15.0,0.4,345.0,1.2,'11111222,11111222,11111222' 
NOS,ioos:station:wmo:fpst2:1,2019-01-01T06:54:00Z,28.9360,-95.2940,15.0,0.9,305.0,1.1,'11111222,11111222,11111222' 
NOS,ioos:station:wmo:fpst2:1,2019-01-01T07:00:00Z,28.9360,-95.2940,15.0,1.6,294.0,1.7,'11111222,11111222,11111222' 
NOS,ioos:station:wmo:fpst2:1,2019-01-01T07:06:00Z,28.9360,-95.2940,15.0,1.4,290.0,1.6,'11111222,11111222,11111222' 
NOS,ioos:station:wmo:fpst2:1,2019-01-01T07:12:00Z,28.9360,-95.2940,15.0,1.4,308.0,1.8,'11111222,11111222,11111222' 
NOS,ioos:station:wmo:fpst2:1,2019-01-01T07:18:00Z,28.9360,-95.2940,15.0,2.0,306.0,2.5,'11111222,11111222,11111222' 
NOS,ioos:station:wmo:fpst2:1,2019-01-01T07:24:00Z,28.9360,-95.2940,15.0,1.2,337.0,2.0,'11111222,11111222,11111222' 
NOS,ioos:station:wmo:fpst2:1,2019-01-01T07:30:00Z,28.9360,-95.2940,15.0,1.6,335.0,2.0,'11111222,11111222,11111222' 
NOS,ioos:station:wmo:fpst2:1,2019-01-01T07:36:00Z,28.9360,-95.2940,15.0,1.7,323.0,1.9,'11111222,11111222,11111222' 
NOS,ioos:station:wmo:fpst2:1,2019-01-01T07:42:00Z,28.9360,-95.2940,15.0,1.4,359.0,2.0,'11111222,11111222,11111222' 
NOS,ioos:station:wmo:fpst2:1,2019-01-01T07:48:00Z,28.9360,-95.2940,15.0,1.6,7.0,2.0,'11111222,11111222,11111222' 
NOS,ioos:station:wmo:fpst2:1,2019-01-01T07:54:00Z,28.9360,-95.2940,15.0,1.6,7.0,2.0,'11111222,11111222,11111222' 
NOS,ioos:station:wmo:fpst2:1,2019-01-01T08:00:00Z,28.9360,-95.2940,15.0,1.3,352.0,2.1,'11111222,11111222,11111222' 
NOS,ioos:station:wmo:fpst2:1,2019-01-01T08:06:00Z,28.9360,-95.2940,15.0,1.5,335.0,1.7,'11111222,11111222,11111222' 
NOS,ioos:station:wmo:fpst2:1,2019-01-01T08:12:00Z,28.9360,-95.2940,15.0,0.8,343.0,1.5,'11111222,11111222,11111222' 
NOS,ioos:station:wmo:fpst2:1,2019-01-01T08:18:00Z,28.9360,-95.2940,15.0,1.7,330.0,2.0,'11111222,11111222,11111222' 
NOS,ioos:station:wmo:fpst2:1,2019-01-01T08:24:00Z,28.9360,-95.2940,15.0,2.3,336.0,2.4,'11111222,11111222,11111222' 
NOS,ioos:station:wmo:fpst2:1,2019-01-01T08:30:00Z,28.9360,-95.2940,15.0,2.2,347.0,2.8,'11111222,11111222,11111222' 
NOS,ioos:station:wmo:fpst2:1,2019-01-01T08:36:00Z,28.9360,-95.2940,15.0,2.2,360.0,2.8,'11111222,11144222,11111222' 
NOS,ioos:station:wmo:fpst2:1,2019-01-01T08:42:00Z,28.9360,-95.2940,15.0,3.0,337.0,4.0,'11111222,11111222,11111222' 
NOS,ioos:station:wmo:fpst2:1,2019-01-01T08:48:00Z,28.9360,-95.2940,15.0,3.8,333.0,4.3,'11111222,11111222,11111222' 
NOS,ioos:station:wmo:fpst2:1,2019-01-01T08:54:00Z,28.9360,-95.2940,15.0,3.9,334.0,4.4,'11111222,11111222,11111222' 
NOS,ioos:station:wmo:fpst2:1,2019-01-01T09:00:00Z,28.9360,-95.2940,15.0,4.3,336.0,5.1,'11111222,11111222,11111222' 
NOS,ioos:station:wmo:fpst2:1,2019-01-01T09:06:00Z,28.9360,-95.2940,15.0,4.2,332.0,5.5,'11111222,11111222,11111222' 
NOS,ioos:station:wmo:fpst2:1,2019-01-01T09:12:00Z,28.9360,-95.2940,15.0,4.0,336.0,5.6,'11111222,11111222,11111222' 
NOS,ioos:station:wmo:fpst2:1,2019-01-01T09:18:00Z,28.9360,-95.2940,15.0,4.2,341.0,5.0,'11111222,11111222,11111222' 
NOS,ioos:station:wmo:fpst2:1,2019-01-01T09:24:00Z,28.9360,-95.2940,15.0,4.7,335.0,5.4,'11111222,11111222,11111222' 
NOS,ioos:station:wmo:fpst2:1,2019-01-01T09:30:00Z,28.9360,-95.2940,15.0,4.2,334.0,5.4,'11111222,11111222,11111222' 
NOS,ioos:station:wmo:fpst2:1,2019-01-01T09:36:00Z,28.9360,-95.2940,15.0,4.0,338.0,5.2,'11111222,11111222,11111222' 
NOS,ioos:station:wmo:fpst2:1,2019-01-01T09:42:00Z,28.9360,-95.2940,15.0,4.2,336.0,4.8,'11111222,11111222,11111222' 
NOS,ioos:station:wmo:fpst2:1,2019-01-01T09:48:00Z,28.9360,-95.2940,15.0,4.7,332.0,5.2,'11111222,11111222,11111222' 
NOS,ioos:station:wmo:fpst2:1,2019-01-01T09:54:00Z,28.9360,-95.2940,15.0,4.3,330.0,5.4,'11111222,11111222,11111222' 
NOS,ioos:station:wmo:fpst2:1,2019-01-01T10:00:00Z,28.9360,-95.2940,15.0,3.7,337.0,4.9,'11111222,11111222,11111222' 
NOS,ioos:station:wmo:fpst2:1,2019-01-01T10:06:00Z,28.9360,-95.2940,15.0,3.6,336.0,4.8,'11111222,11111222,11111222' 
NOS,ioos:station:wmo:fpst2:1,2019-01-01T10:12:00Z,28.9360,-95.2940,15.0,4.5,336.0,5.1,'11111222,11111222,11111222' 
NOS,ioos:station:wmo:fpst2:1,2019-01-01T10:18:00Z,28.9360,-95.2940,15.0,4.3,334.0,4.8,'11111222,11111222,11111222' 
NOS,ioos:station:wmo:fpst2:1,2019-01-01T10:24:00Z,28.9360,-95.2940,15.0,3.7,343.0,4.7,'11111222,11111222,11111222' 
NOS,ioos:station:wmo:fpst2:1,2019-01-01T10:30:00Z,28.9360,-95.2940,15.0,2.9,355.0,4.0,'11111222,11111222,11111222' 
NOS,ioos:station:wmo:fpst2:1,2019-01-01T10:36:00Z,28.9360,-95.2940,15.0,3.0,348.0,3.5,'11111222,11111222,11111222' 
NOS,ioos:station:wmo:fpst2:1,2019-01-01T10:42:00Z,28.9360,-95.2940,15.0,2.5,354.0,3.6,'11111222,11111222,11111222' 
NOS,ioos:station:wmo:fpst2:1,2019-01-01T10:48:00Z,28.9360,-95.2940,15.0,3.0,346.0,3.7,'11111222,11111222,11111222' 
NOS,ioos:station:wmo:fpst2:1,2019-01-01T10:54:00Z,28.9360,-95.2940,15.0,3.4,345.0,4.1,'11111222,11111222,11111222' 
NOS,ioos:station:wmo:fpst2:1,2019-01-01T11:00:00Z,28.9360,-95.2940,15.0,2.7,355.0,3.9,'11111222,11111222,11111222' 
NOS,ioos:station:wmo:fpst2:1,2019-01-01T11:06:00Z,28.9360,-95.2940,15.0,3.3,348.0,4.1,'11111222,11111222,11111222' 
NOS,ioos:station:wmo:fpst2:1,2019-01-01T11:12:00Z,28.9360,-95.2940,15.0,3.3,353.0,4.2,'11111222,11111222,11111222' 
NOS,ioos:station:wmo:fpst2:1,2019-01-01T11:18:00Z,28.9360,-95.2940,15.0,3.0,2.0,4.2,'11111222,11111222,11111222' 
NOS,ioos:station:wmo:fpst2:1,2019-01-01T11:24:00Z,28.9360,-95.2940,15.0,3.7,345.0,4.6,'11111222,11111222,11111222' 
NOS,ioos:station:wmo:fpst2:1,2019-01-01T11:30:00Z,28.9360,-95.2940,15.0,4.5,349.0,5.3,'11111222,11111222,11111222' 
NOS,ioos:station:wmo:fpst2:1,2019-01-01T11:36:00Z,28.9360,-95.2940,15.0,4.2,351.0,5.4,'11111222,11111222,11111222' 
NOS,ioos:station:wmo:fpst2:1,2019-01-01T11:42:00Z,28.9360,-95.2940,15.0,3.9,7.0,4.8,'11111222,11111222,11111222' 
NOS,ioos:station:wmo:fpst2:1,2019-01-01T11:48:00Z,28.9360,-95.2940,15.0,2.9,6.0,4.2,'11111222,11111222,11111222' 
NOS,ioos:station:wmo:fpst2:1,2019-01-01T11:54:00Z,28.9360,-95.2940,15.0,2.8,2.0,3.5,'11111222,11111222,11111222' 
NOS,ioos:station:wmo:fpst2:1,2019-01-01T12:00:00Z,28.9360,-95.2940,15.0,3.2,347.0,3.8,'11111222,11111222,11111222' 
NOS,ioos:station:wmo:fpst2:1,2019-01-01T12:06:00Z,28.9360,-95.2940,15.0,3.6,348.0,4.4,'11111222,11111222,11111222' 
NOS,ioos:station:wmo:fpst2:1,2019-01-01T12:12:00Z,28.9360,-95.2940,15.0,3.6,350.0,4.5,'11111222,11111222,11111222' 
NOS,ioos:station:wmo:fpst2:1,2019-01-01T12:18:00Z,28.9360,-95.2940,15.0,3.0,359.0,4.6,'11111222,11111222,11111222' 
NOS,ioos:station:wmo:fpst2:1,2019-01-01T12:24:00Z,28.9360,-95.2940,15.0,3.4,356.0,4.4,'11111222,11111222,11111222' 
NOS,ioos:station:wmo:fpst2:1,2019-01-01T12:30:00Z,28.9360,-95.2940,15.0,3.6,344.0,4.7,'11111222,11111222,11111222' 
NOS,ioos:station:wmo:fpst2:1,2019-01-01T12:36:00Z,28.9360,-95.2940,15.0,4.5,345.0,5.5,'11111222,11111222,11111222' 
NOS,ioos:station:wmo:fpst2:1,2019-01-01T12:42:00Z,28.9360,-95.2940,15.0,3.8,351.0,5.5,'11111222,11111222,11111222' 
NOS,ioos:station:wmo:fpst2:1,2019-01-01T12:48:00Z,28.9360,-95.2940,15.0,3.9,2.0,4.7,'11111222,11111222,11111222' 
NOS,ioos:station:wmo:fpst2:1,2019-01-01T12:54:00Z,28.9360,-95.2940,15.0,4.2,356.0,5.1,'11111222,11111222,11111222' 
NOS,ioos:station:wmo:fpst2:1,2019-01-01T13:00:00Z,28.9360,-95.2940,15.0,4.2,348.0,5.5,'11111222,11111222,11111222' 
NOS,ioos:station:wmo:fpst2:1,2019-01-01T13:06:00Z,28.9360,-95.2940,15.0,4.2,345.0,5.4,'11111222,11111222,11111222' 
NOS,ioos:station:wmo:fpst2:1,2019-01-01T13:12:00Z,28.9360,-95.2940,15.0,4.6,343.0,5.5,'11111222,11111222,11111222' 
NOS,ioos:station:wmo:fpst2:1,2019-01-01T13:18:00Z,28.9360,-95.2940,15.0,4.0,353.0,5.2,'11111222,11111222,11111222' 
NOS,ioos:station:wmo:fpst2:1,2019-01-01T13:24:00Z,28.9360,-95.2940,15.0,3.9,2.0,5.6,'11111222,11111222,11111222' 
NOS,ioos:station:wmo:fpst2:1,2019-01-01T13:30:00Z,28.9360,-95.2940,15.0,5.0,349.0,5.8,'11111222,11111222,11111222' 
NOS,ioos:station:wmo:fpst2:1,2019-01-01T13:36:00Z,28.9360,-95.2940,15.0,4.2,349.0,6.0,'11111222,11111222,11111222' 
NOS,ioos:station:wmo:fpst2:1,2019-01-01T13:42:00Z,28.9360,-95.2940,15.0,3.8,349.0,5.3,'11111222,11111222,11111222' 
NOS,ioos:station:wmo:fpst2:1,2019-01-01T13:48:00Z,28.9360,-95.2940,15.0,4.5,352.0,5.9,'11111222,11111222,11111222' 
NOS,ioos:station:wmo:fpst2:1,2019-01-01T13:54:00Z,28.9360,-95.2940,15.0,4.2,355.0,6.0,'11111222,11111222,11111222' 
NOS,ioos:station:wmo:fpst2:1,2019-01-01T14:00:00Z,28.9360,-95.2940,15.0,4.8,357.0,5.9,'11111222,11111222,11111222' 
NOS,ioos:station:wmo:fpst2:1,2019-01-01T14:06:00Z,28.9360,-95.2940,15.0,4.7,5.0,6.1,'11111222,11111222,11111222' 
NOS,ioos:station:wmo:fpst2:1,2019-01-01T14:12:00Z,28.9360,-95.2940,15.0,4.8,9.0,6.3,'11111222,11111222,11111222' 
NOS,ioos:station:wmo:fpst2:1,2019-01-01T14:18:00Z,28.9360,-95.2940,15.0,5.4,10.0,6.1,'11111222,11111222,11111222' 
NOS,ioos:station:wmo:fpst2:1,2019-01-01T14:24:00Z,28.9360,-95.2940,15.0,5.2,10.0,6.3,'11111222,11111222,11111222' 
NOS,ioos:station:wmo:fpst2:1,2019-01-01T14:30:00Z,28.9360,-95.2940,15.0,5.0,10.0,6.0,'11111222,11111222,11111222' 
NOS,ioos:station:wmo:fpst2:1,2019-01-01T14:36:00Z,28.9360,-95.2940,15.0,4.9,7.0,6.1,'11111222,11111222,11111222' 
NOS,ioos:station:wmo:fpst2:1,2019-01-01T14:42:00Z,28.9360,-95.2940,15.0,4.7,6.0,6.5,'11111222,11111222,11111222' 
NOS,ioos:station:wmo:fpst2:1,2019-01-01T14:48:00Z,28.9360,-95.2940,15.0,4.7,3.0,6.3,'11111222,11111222,11111222' 
NOS,ioos:station:wmo:fpst2:1,2019-01-01T14:54:00Z,28.9360,-95.2940,15.0,5.1,4.0,6.3,'11111222,11111222,11111222' 
NOS,ioos:station:wmo:fpst2:1,2019-01-01T15:00:00Z,28.9360,-95.2940,15.0,6.4,10.0,7.6,'11111222,11111222,11111222' 
NOS,ioos:station:wmo:fpst2:1,2019-01-01T15:06:00Z,28.9360,-95.2940,15.0,5.3,10.0,6.8,'11111222,11111222,11111222' 
NOS,ioos:station:wmo:fpst2:1,2019-01-01T15:12:00Z,28.9360,-95.2940,15.0,5.3,7.0,6.7,'11111222,11111222,11111222' 
NOS,ioos:station:wmo:fpst2:1,2019-01-01T15:18:00Z,28.9360,-95.2940,15.0,5.2,7.0,6.0,'11111222,11111222,11111222' 
NOS,ioos:station:wmo:fpst2:1,2019-01-01T15:24:00Z,28.9360,-95.2940,15.0,5.2,8.0,6.1,'11111222,11111222,11111222' 
NOS,ioos:station:wmo:fpst2:1,2019-01-01T15:30:00Z,28.9360,-95.2940,15.0,6.0,15.0,6.5,'11111222,11111222,11111222' 
NOS,ioos:station:wmo:fpst2:1,2019-01-01T15:36:00Z,28.9360,-95.2940,15.0,5.7,12.0,7.1,'11111222,11111222,11111222' 
NOS,ioos:station:wmo:fpst2:1,2019-01-01T15:42:00Z,28.9360,-95.2940,15.0,5.3,7.0,6.2,'11111222,11111222,11111222' 
NOS,ioos:station:wmo:fpst2:1,2019-01-01T15:48:00Z,28.9360,-95.2940,15.0,5.5,15.0,6.8,'11111222,11111222,11111222' 
NOS,ioos:station:wmo:fpst2:1,2019-01-01T15:54:00Z,28.9360,-95.2940,15.0,6.0,18.0,7.0,'11111222,11111222,11111222' 
NOS,ioos:station:wmo:fpst2:1,2019-01-01T16:00:00Z,28.9360,-95.2940,15.0,6.8,14.0,7.6,'11111222,11111222,11111222' 
NOS,ioos:station:wmo:fpst2:1,2019-01-01T16:06:00Z,28.9360,-95.2940,15.0,6.6,13.0,7.5,'11111222,11111222,11111222' 
NOS,ioos:station:wmo:fpst2:1,2019-01-01T16:12:00Z,28.9360,-95.2940,15.0,6.9,15.0,8.5,'11111222,11111222,11111222' 
NOS,ioos:station:wmo:fpst2:1,2019-01-01T16:18:00Z,28.9360,-95.2940,15.0,6.0,21.0,7.5,'11111222,11111222,11111222' 
NOS,ioos:station:wmo:fpst2:1,2019-01-01T16:24:00Z,28.9360,-95.2940,15.0,6.1,24.0,8.4,'11111222,11111222,11111222' 
NOS,ioos:station:wmo:fpst2:1,2019-01-01T16:30:00Z,28.9360,-95.2940,15.0,6.8,19.0,8.2,'11111222,11111222,11111222' 
NOS,ioos:station:wmo:fpst2:1,2019-01-01T16:36:00Z,28.9360,-95.2940,15.0,7.6,24.0,8.6,'11111222,11111222,11111222' 
NOS,ioos:station:wmo:fpst2:1,2019-01-01T16:42:00Z,28.9360,-95.2940,15.0,7.5,25.0,8.5,'11111222,11111222,11111222' 
NOS,ioos:station:wmo:fpst2:1,2019-01-01T16:48:00Z,28.9360,-95.2940,15.0,7.4,27.0,8.5,'11111222,11111222,11111222' 
NOS,ioos:station:wmo:fpst2:1,2019-01-01T16:54:00Z,28.9360,-95.2940,15.0,7.8,26.0,8.9,'11111222,11111222,11111222' 
NOS,ioos:station:wmo:fpst2:1,2019-01-01T17:00:00Z,28.9360,-95.2940,15.0,8.5,20.0,9.3,'11111222,11111222,11111222' 
NOS,ioos:station:wmo:fpst2:1,2019-01-01T17:06:00Z,28.9360,-95.2940,15.0,8.4,20.0,9.6,'11111222,11111222,11111222' 
NOS,ioos:station:wmo:fpst2:1,2019-01-01T17:12:00Z,28.9360,-95.2940,15.0,9.3,22.0,11.4,'11111222,11111222,11111222' 
NOS,ioos:station:wmo:fpst2:1,2019-01-01T17:18:00Z,28.9360,-95.2940,15.0,9.9,25.0,11.2,'11111222,11111222,11111222' 
NOS,ioos:station:wmo:fpst2:1,2019-01-01T17:24:00Z,28.9360,-95.2940,15.0,9.9,25.0,11.2,'11111222,11111222,11111222' 
NOS,ioos:station:wmo:fpst2:1,2019-01-01T17:30:00Z,28.9360,-95.2940,15.0,8.4,24.0,11.2,'11111222,11111222,11111222' 
NOS,ioos:station:wmo:fpst2:1,2019-01-01T17:36:00Z,28.9360,-95.2940,15.0,8.4,24.0,9.9,'11111222,11111222,11111222' 
NOS,ioos:station:wmo:fpst2:1,2019-01-01T17:42:00Z,28.9360,-95.2940,15.0,9.2,19.0,10.2,'11111222,11111222,11111222' 
NOS,ioos:station:wmo:fpst2:1,2019-01-01T17:48:00Z,28.9360,-95.2940,15.0,9.7,22.0,10.8,'11111222,11111222,11111222' 
NOS,ioos:station:wmo:fpst2:1,2019-01-01T17:54:00Z,28.9360,-95.2940,15.0,9.3,24.0,10.7,'11111222,11111222,11111222' 
NOS,ioos:station:wmo:fpst2:1,2019-01-01T18:00:00Z,28.9360,-95.2940,15.0,9.0,22.0,10.5,'11111222,11111222,11111222' 
NOS,ioos:station:wmo:fpst2:1,2019-01-01T18:06:00Z,28.9360,-95.2940,15.0,9.7,15.0,11.8,'11111222,11111222,11111222' 
NOS,ioos:station:wmo:fpst2:1,2019-01-01T18:12:00Z,28.9360,-95.2940,15.0,9.4,23.0,11.5,'11111222,11111222,11111222' 
NOS,ioos:station:wmo:fpst2:1,2019-01-01T18:18:00Z,28.9360,-95.2940,15.0,9.1,20.0,11.7,'11111222,11111222,11111222' 
NOS,ioos:station:wmo:fpst2:1,2019-01-01T18:24:00Z,28.9360,-95.2940,15.0,10.2,24.0,11.5,'11111222,11111222,11111222' 
NOS,ioos:station:wmo:fpst2:1,2019-01-01T18:30:00Z,28.9360,-95.2940,15.0,9.3,24.0,11.3,'11111222,11111222,11111222' 
NOS,ioos:station:wmo:fpst2:1,2019-01-01T18:36:00Z,28.9360,-95.2940,15.0,9.6,23.0,11.5,'11111222,11111222,11111222' 
NOS,ioos:station:wmo:fpst2:1,2019-01-01T18:42:00Z,28.9360,-95.2940,15.0,8.0,22.0,9.6,'11111222,11111222,11111222' 
NOS,ioos:station:wmo:fpst2:1,2019-01-01T18:48:00Z,28.9360,-95.2940,15.0,8.1,26.0,10.0,'11111222,11111222,11111222' 
NOS,ioos:station:wmo:fpst2:1,2019-01-01T18:54:00Z,28.9360,-95.2940,15.0,8.4,29.0,9.2,'11111222,11111222,11111222' 
NOS,ioos:station:wmo:fpst2:1,2019-01-01T19:00:00Z,28.9360,-95.2940,15.0,8.4,29.0,9.2,'11111222,11111222,11111222' 
NOS,ioos:station:wmo:fpst2:1,2019-01-01T19:06:00Z,28.9360,-95.2940,15.0,8.0,27.0,9.1,'11111222,11111222,11111222' 
NOS,ioos:station:wmo:fpst2:1,2019-01-01T19:12:00Z,28.9360,-95.2940,15.0,8.2,30.0,9.9,'11111222,11111222,11111222' 
NOS,ioos:station:wmo:fpst2:1,2019-01-01T19:18:00Z,28.9360,-95.2940,15.0,7.8,28.0,8.7,'11111222,11111222,11111222' 
NOS,ioos:station:wmo:fpst2:1,2019-01-01T19:24:00Z,28.9360,-95.2940,15.0,7.8,28.0,8.7,'11111222,11111222,11111222' 
NOS,ioos:station:wmo:fpst2:1,2019-01-01T19:30:00Z,28.9360,-95.2940,15.0,7.3,31.0,8.2,'11111222,11111222,11111222' 
NOS,ioos:station:wmo:fpst2:1,2019-01-01T19:36:00Z,28.9360,-95.2940,15.0,7.2,27.0,8.2,'11111222,11111222,11111222' 
NOS,ioos:station:wmo:fpst2:1,2019-01-01T19:42:00Z,28.9360,-95.2940,15.0,7.1,26.0,8.9,'11111222,11111222,11111222' 
NOS,ioos:station:wmo:fpst2:1,2019-01-01T19:48:00Z,28.9360,-95.2940,15.0,6.8,22.0,8.0,'11111222,11111222,11111222' 
NOS,ioos:station:wmo:fpst2:1,2019-01-01T19:54:00Z,28.9360,-95.2940,15.0,7.6,28.0,8.8,'11111222,11111222,11111222' 
NOS,ioos:station:wmo:fpst2:1,2019-01-01T20:00:00Z,28.9360,-95.2940,15.0,7.6,28.0,8.8,'11111222,11111222,11111222' 
NOS,ioos:station:wmo:fpst2:1,2019-01-01T20:06:00Z,28.9360,-95.2940,15.0,8.3,29.0,8.9,'11111222,11111222,11111222' 
NOS,ioos:station:wmo:fpst2:1,2019-01-01T20:12:00Z,28.9360,-95.2940,15.0,7.3,24.0,8.1,'11111222,11111222,11111222' 
NOS,ioos:station:wmo:fpst2:1,2019-01-01T20:18:00Z,28.9360,-95.2940,15.0,7.3,24.0,8.1,'11111222,11111222,11111222' 
NOS,ioos:station:wmo:fpst2:1,2019-01-01T20:24:00Z,28.9360,-95.2940,15.0,6.8,22.0,8.4,'11111222,11111222,11111222' 
NOS,ioos:station:wmo:fpst2:1,2019-01-01T20:30:00Z,28.9360,-95.2940,15.0,6.9,27.0,8.5,'11111222,11111222,11111222' 